Location: Star Camp Observatory
(34.2910°N, 116.3827°W)
Time: 13:45:34
(UTC-07:00)

OTV 5 (USA 277) - Visible Passes

Search period start: 17 October 2019 00:00
Search period end: 27 October 2019 00:00
Orbit: 310 x 324 km, 54.5° (Epoch: 08 October)

Date Brightness Start Highest point End Pass type
(mag) Time Alt. Az. Time Alt. Az. Time Alt. Az.
19 Oct ? 05:25:14 10° N 05:26:32 13° NE 05:27:50 10° ENE visible
20 Oct ? 05:39:44 18° N 05:41:17 31° NE 05:43:45 10° ESE visible
21 Oct ? 05:54:32 26° NW 05:55:50 66° SW 05:58:31 10° SE visible
22 Oct ? 06:09:28 16° WSW 06:10:15 18° SW 06:12:12 10° S visible
25 Oct ? 19:59:57 10° SW 20:00:05 11° SW 20:00:05 11° SW visible
26 Oct ? 18:41:08 10° S 18:43:05 18° SE 18:44:02 15° E visible
